Weather in Zabki

Poland     52°17′32″N   21°06′53″E
temp.,
°C
wind,
m/s
gust,
m/s
humid.,
%
clouds,
%
prec.,
mm/h
press.,
hPa
HPBL,
m
28 september, tue
tue2823:00+12ese411676 0.0 1023414
02:00+10ese3107466 0.0 1023341
05:00+9e498168 0.0 1023311
08:00+9ese4977100 0.0 1024349
11:00+13ese465580 0.0 1025794
14:00+16ese4646100 0.0 10251128
17:00+15ese4650100 0.0 10251103
20:00+13ese4961100 0.0 1026497
29 september, wed
wed2923:00+11ese4116380 0.0 1026531
02:00+10ese411675 0.0 1026423
05:00+9ese411755 0.0 1026405
08:00+10ese413735 0.0 1026428
11:00+15ese7114930 0.0 10251065
14:00+17se7104137 0.0 10231396
17:00+17se6114698 0.0 10231234
20:00+14se61354100 0.0 1022829
30 september, thu
thu3023:00+14se61354100 0.0 1023627
02:00+13sse51258100 0.0 1023475
05:00+11sse4787100 1.8 1023280
08:00+11s2394100 4.1 1025138
11:00+13w3790100 1.4 1026526
14:00+13w2473100 1.8 1027458
17:00+14wsw1360100 0.0 1027219
20:00+12wsw1167100 0.0 102931
1 october, fri
fri123:00+11w1164100 0.0 103010
02:00+10nw00650 0.0 103010
05:00+9se11690 0.0 103011
08:00+10se137193 0.0 103095
11:00+14sse24655 0.0 1030693
14:00+17se345268 0.0 10281273
17:00+15se4562100 0.1 1027816
20:00+14ese376448 0.1 1027420
2 october, sat
sat223:00+11se386655 0.0 1026262
02:00+10se387379 0.0 1024222
05:00+10se397492 0.0 1023239
08:00+10sse3106997 0.0 1022257
11:00+15sse4761100 0.0 1021481
14:00+18sse4553100 0.0 1020793
17:00+18sse365683 0.0 1019712
20:00+15sse3971100 0.0 1019240